time_stamp(utc),avg(mph),gust(mph),direction(deg),12m_air_temp(f),sonic_u(cm/s),sonic_v(cm/s),sonic_w(cm/s),pressure,2m_air_temp(f),pyranometer(W/m^2)
"2020-07-30 00:03:00+00",10.7,12.7,,78.7,-295,-397,1,1011.93,79,0
"2020-07-30 00:08:00+00",11.6,12.6,,78.6,-309,-431,-1,1011.93,78.7,0
"2020-07-30 00:13:00+00",10.5,12.5,,78.7,-257,-403,-2,1011.98,78.4,0
"2020-07-30 00:18:00+00",9.9,11.9,,78.6,-252,-375,8,1012,78.2,0
"2020-07-30 00:23:00+00",11.9,13.9,,78.7,-324,-441,10,1011.9,78,0
"2020-07-30 00:28:00+00",12.5,15.5,,78.7,-349,-453,14,1011.96,78,0
"2020-07-30 00:33:00+00",11.4,14.4,,78.7,-302,-425,12,1012.02,78,0
"2020-07-30 00:38:00+00",10.8,11.8,,78.5,-237,-423,4,1012.02,77.9,0
"2020-07-30 00:43:00+00",12.4,14.4,,78.6,-334,-461,4,1012.11,77.8,0
"2020-07-30 00:48:00+00",12.4,14.4,,78.8,-356,-456,4,1012.05,77.8,0
"2020-07-30 00:53:00+00",12.5,13.5,,78.8,-350,-461,2,1012.2,77.9,0
"2020-07-30 00:58:00+00",12.6,14.6,,78.8,-358,-450,9,1012.1,77.9,0
"2020-07-30 01:03:00+00",12.2,15.2,,78.7,-351,-437,9,1012.27,77.9,0
"2020-07-30 01:08:00+00",12.3,14.3,,78.6,-340,-440,1,1012.24,77.9,0
"2020-07-30 01:13:00+00",12.2,14.2,,78.7,-346,-438,-2,1012.2,77.9,0
"2020-07-30 01:18:00+00",11.3,13.3,,78.6,-326,-411,7,1012.2,77.9,0
"2020-07-30 01:23:00+00",11.6,12.6,,78.5,-273,-455,-2,1012.24,77.8,0
"2020-07-30 01:28:00+00",9.1,10.1,,78.1,-201,-357,-1,1012.26,77.6,0
"2020-07-30 01:33:00+00",9.6,10.6,,77.9,-193,-386,-3,1012.29,77.3,0
"2020-07-30 01:38:00+00",9.6,11.6,,77.9,-184,-384,-2,1012.33,77.2,0
"2020-07-30 01:43:00+00",8.9,10.9,,77.9,-188,-354,5,1012.33,77.1,0
"2020-07-30 01:48:00+00",8.6,9.6,,77.8,-136,-344,-3,1012.38,77,0
"2020-07-30 01:53:00+00",11.8,13.8,,77.9,-211,-467,-9,1012.38,77,0
"2020-07-30 01:58:00+00",11.7,12.7,,78,-241,-466,-3,1012.41,77.1,0
"2020-07-30 02:03:00+00",10.2,11.2,,78,-215,-401,5,1012.47,77.2,0
"2020-07-30 02:08:00+00",8.4,9.4,,77.9,-201,-334,6,1012.39,77.2,0
"2020-07-30 02:13:00+00",9.2,11.2,,78,-225,-368,0,1012.46,77.2,0
"2020-07-30 02:18:00+00",10.0,11.0,,78,-273,-355,-1,1012.48,77.2,0
"2020-07-30 02:23:00+00",9.3,10.3,,77.9,-242,-348,8,1012.44,77.2,0
"2020-07-30 02:28:00+00",9.8,10.8,,77.8,-230,-382,-2,1012.53,77.1,0
"2020-07-30 02:33:00+00",9.6,11.6,,77.7,-261,-355,-5,1012.44,77,0
"2020-07-30 02:38:00+00",8.5,10.5,,77.6,-218,-325,3,1012.41,77,0
"2020-07-30 02:43:00+00",7.1,9.1,,77.5,-166,-266,2,1012.38,76.9,0
"2020-07-30 02:48:00+00",7.9,8.9,,77.3,-190,-310,2,1012.32,76.7,0
"2020-07-30 02:53:00+00",9.2,11.2,,77.1,-119,-381,-3,1012.35,76.6,0
"2020-07-30 02:58:00+00",9.4,10.4,,77.1,-223,-370,3,1012.33,76.5,0
"2020-07-30 03:03:00+00",8.6,9.6,,77,-214,-325,-5,1012.3,76.4,0
"2020-07-30 03:08:00+00",8.9,9.9,,76.9,-226,-345,3,1012.32,76.3,0
"2020-07-30 03:13:00+00",7.8,8.8,,76.7,-183,-303,-2,1012.3,76.2,0
"2020-07-30 03:18:00+00",8.0,9.0,,76.7,-200,-306,-2,1012.37,76.1,0
"2020-07-30 03:23:00+00",8.1,9.1,,76.7,-226,-297,1,1012.33,76,0
"2020-07-30 03:28:00+00",8.3,9.3,,76.7,-206,-316,-3,1012.3,75.9,0
"2020-07-30 03:33:00+00",8.8,9.8,,76.8,-204,-347,-6,1012.36,75.9,0
"2020-07-30 03:38:00+00",9.1,10.1,,76.9,-228,-349,-5,1012.25,75.8,0
"2020-07-30 03:43:00+00",9.0,10.0,,76.9,-241,-341,-1,1012.19,75.8,0
"2020-07-30 03:48:00+00",9.1,10.1,,77,-242,-339,2,1012.15,75.8,0
"2020-07-30 03:53:00+00",9.4,10.4,,76.9,-242,-355,-8,1012.17,75.8,0
"2020-07-30 03:58:00+00",8.9,9.9,,77,-230,-332,2,1012.17,75.8,0
"2020-07-30 04:03:00+00",9.1,10.1,,77.1,-240,-341,-3,1012.15,75.8,0
"2020-07-30 04:08:00+00",9.8,10.8,,77,-189,-402,-9,1012.18,75.8,0
"2020-07-30 04:13:00+00",10.8,12.8,,76.8,-203,-444,-9,1012.13,75.7,0
"2020-07-30 04:18:00+00",9.4,11.4,,76.9,-263,-352,5,1012.13,75.6,0
"2020-07-30 04:23:00+00",8.2,10.2,,77.1,-242,-285,10,1012.11,75.7,0
"2020-07-30 04:28:00+00",8.0,9.0,,77.3,-233,-264,1,1012.16,75.8,0
"2020-07-30 04:33:00+00",8.6,10.6,,77.6,-260,-277,-9,1012.23,75.8,0
"2020-07-30 04:38:00+00",8.3,10.3,,77.9,-250,-255,-1,1012.19,75.9,0
"2020-07-30 04:43:00+00",8.3,9.3,,77.9,-246,-275,1,1012.21,76,0
"2020-07-30 04:48:00+00",9.0,10.0,,78.1,-275,-290,-1,1012.2,76.2,0
"2020-07-30 04:53:00+00",8.7,10.7,,78.1,-261,-285,7,1012.16,76.3,0
"2020-07-30 04:58:00+00",9.0,10.0,,78,-315,-247,5,1012.07,76.4,0
"2020-07-30 05:03:00+00",8.2,10.2,,78.1,-238,-271,2,1012.14,76.5,0
"2020-07-30 05:08:00+00",7.1,8.1,,77.9,-180,-264,-2,1012.15,76.5,0
"2020-07-30 05:13:00+00",7.0,8.0,,77.9,-232,-197,7,1012.16,76.5,0
"2020-07-30 05:18:00+00",8.8,9.8,,78.2,-356,-157,9,1012.06,76.5,0
"2020-07-30 05:23:00+00",7.9,8.9,,78.4,-320,-130,6,1012.08,76.6,0
"2020-07-30 05:28:00+00",7.7,8.7,,78.6,-305,-133,9,1012.17,76.5,0
"2020-07-30 05:33:00+00",7.5,8.5,,78.6,-295,-132,3,1012.08,76.4,0
"2020-07-30 05:38:00+00",7.4,8.4,,78.6,-294,-128,10,1012.11,76.3,0
"2020-07-30 05:43:00+00",7.0,8.0,,78.6,-300,-166,6,1012.02,76.2,0
"2020-07-30 05:48:00+00",6.1,7.1,,78.6,-232,-155,7,1011.92,76.1,0
"2020-07-30 05:53:00+00",7.0,8.0,,78.5,-231,-195,0,1011.91,76,0
"2020-07-30 05:58:00+00",7.3,8.3,,78.6,-230,-217,6,1011.88,75.9,0
"2020-07-30 06:03:00+00",6.0,8.0,,78.3,-177,-187,2,1011.82,75.9,0
"2020-07-30 06:08:00+00",6.2,7.2,,78.4,-195,-196,0,1011.84,76,0
"2020-07-30 06:13:00+00",7.0,7.0,,78.3,-223,-206,4,1011.77,76,0
"2020-07-30 06:18:00+00",5.9,6.9,,78.3,-203,-157,2,1011.85,75.9,0
"2020-07-30 06:23:00+00",5.3,6.3,,78.2,-211,-120,6,1011.8,75.9,0
"2020-07-30 06:28:00+00",6.0,7.0,,78.3,-247,-134,6,1011.72,75.8,0
"2020-07-30 06:33:00+00",7.3,9.3,,78.5,-248,-200,-2,1011.72,75.8,0
"2020-07-30 06:38:00+00",7.1,7.1,,78.6,-237,-195,4,1011.68,75.8,0
"2020-07-30 06:43:00+00",7.2,8.2,,78.5,-270,-186,5,1011.59,75.8,0
"2020-07-30 06:48:00+00",7.1,7.1,,78.4,-268,-180,10,1011.58,75.9,0
"2020-07-30 06:53:00+00",6.2,6.2,,78.2,-236,-161,6,1011.57,75.8,0
"2020-07-30 06:58:00+00",3.9,3.9,,77.8,-91,-140,0,1011.66,75.8,0
"2020-07-30 07:03:00+00",5.1,6.1,,77.3,18,-216,-6,1011.69,75.6,0
"2020-07-30 07:08:00+00",4.8,4.8,,76.3,-17,-198,0,1011.72,75.1,0
"2020-07-30 07:13:00+00",6.8,7.8,,75.7,12,-280,0,1011.66,74.7,0
"2020-07-30 07:18:00+00",5.8,6.8,,75.9,-175,-185,-5,1011.66,74.6,0
"2020-07-30 07:23:00+00",5.6,6.6,,75.6,-116,-218,-5,1011.74,74.4,0
"2020-07-30 07:28:00+00",4.9,5.9,,75.6,-120,-180,-6,1011.69,74.3,0
"2020-07-30 07:33:00+00",5.4,6.4,,75.4,-143,-197,3,1011.71,74.2,0
"2020-07-30 07:38:00+00",5.5,6.5,,75.7,-146,-195,-1,1011.69,74.2,0
"2020-07-30 07:43:00+00",4.4,5.4,,75.5,-86,-169,-2,1011.66,74.2,0
"2020-07-30 07:48:00+00",3.1,3.1,,75.1,-18,-125,-1,1011.68,74,0
"2020-07-30 07:53:00+00",3.4,3.4,,75.1,-36,-132,-2,1011.69,73.8,0
"2020-07-30 07:58:00+00",3.7,4.7,,75,-46,-139,-9,1011.69,73.6,0
"2020-07-30 08:03:00+00",3.4,3.4,,75,-50,-132,-1,1011.71,73.6,0
"2020-07-30 08:08:00+00",3.2,4.2,,75,-87,-99,-8,1011.65,73.5,0
"2020-07-30 08:13:00+00",2.4,3.4,,74.9,-79,-58,1,1011.6,73.5,0
"2020-07-30 08:18:00+00",3.0,4.0,,74.9,-77,-100,-1,1011.44,73.4,0
"2020-07-30 08:23:00+00",3.9,3.9,,75,-89,-132,-1,1011.39,73.3,0
"2020-07-30 08:28:00+00",3.9,4.9,,74.9,-108,-132,-2,1011.37,73.4,0
"2020-07-30 08:33:00+00",3.2,4.2,,74.9,-90,-104,4,1011.43,73.3,0
"2020-07-30 08:38:00+00",3.0,4.0,,74.9,-70,-98,2,1011.42,73.3,0
"2020-07-30 08:43:00+00",3.0,4.0,,74.9,-77,-106,0,1011.45,73.4,0
"2020-07-30 08:48:00+00",2.9,3.9,,74.9,-75,-95,-2,1011.35,73.4,0
"2020-07-30 08:53:00+00",2.6,3.6,,74.9,-77,-68,-6,1011.26,73.4,0
"2020-07-30 08:58:00+00",3.3,4.3,,74.9,-91,-110,-2,1011.25,73.4,0
"2020-07-30 09:03:00+00",3.3,4.3,,75,-105,-85,-3,1011.21,73.4,0
"2020-07-30 09:08:00+00",2.6,2.6,,75,-77,-65,-4,1011.26,73.4,0
"2020-07-30 09:13:00+00",2.3,3.3,,75,-76,-51,1,1011.26,73.4,0
"2020-07-30 09:18:00+00",2.2,2.2,,75,-57,-62,-4,1011.2,73.4,0
"2020-07-30 09:23:00+00",2.2,2.2,,74.9,-48,-73,1,1011.31,73.4,0
"2020-07-30 09:28:00+00",2.9,2.9,,74.9,-40,-107,-3,1011.31,73.6,0
"2020-07-30 09:33:00+00",3.4,3.4,,74.8,-41,-132,-1,1011.37,73.6,0
"2020-07-30 09:38:00+00",4.4,4.4,,74.7,-89,-174,-2,1011.52,73.4,0
"2020-07-30 09:43:00+00",5.2,5.2,,74.7,-86,-205,-2,1011.5,73.3,0
"2020-07-30 09:48:00+00",6.4,7.4,,74.7,-85,-261,-2,1011.52,73.3,0
"2020-07-30 09:53:00+00",7.1,8.1,,74.6,-48,-296,-9,1011.5,73.5,0
"2020-07-30 09:58:00+00",6.0,7.0,,73.9,3,-245,-5,1011.53,73,0
"2020-07-30 10:03:00+00",5.7,6.7,,73.8,-94,-225,-5,1011.57,73,0
"2020-07-30 10:08:00+00",6.8,7.8,,74,-101,-269,-8,1011.52,72.9,0
"2020-07-30 10:13:00+00",5.6,6.6,,74,-64,-233,-5,1011.55,72.9,0
"2020-07-30 10:18:00+00",5.6,6.6,,74.1,-70,-224,-10,1011.59,73,0
"2020-07-30 10:23:00+00",5.2,6.2,,73.9,-91,-209,-1,1011.66,72.9,0
"2020-07-30 10:28:00+00",5.9,6.9,,74.1,-129,-230,-5,1011.69,72.9,0
"2020-07-30 10:33:00+00",6.1,6.1,,74,-144,-237,0,1011.82,73.1,0
"2020-07-30 10:38:00+00",5.5,6.5,,73.8,-90,-217,-1,1011.76,73.2,0
"2020-07-30 10:43:00+00",6.2,7.2,,73.6,-69,-249,-8,1011.87,73.1,0
"2020-07-30 10:48:00+00",5.4,6.4,,73.4,-57,-216,-1,1011.9,73.1,0
"2020-07-30 10:53:00+00",5.6,6.6,,73.3,-60,-232,-6,1011.84,73.1,0
"2020-07-30 10:58:00+00",6.2,7.2,,73.4,-65,-246,-8,1011.8,73.3,0
"2020-07-30 11:03:00+00",6.3,8.3,,73.8,-116,-250,-6,1011.75,73.5,0
"2020-07-30 11:08:00+00",6.4,7.4,,74.1,-139,-246,0,1011.86,73.9,0
"2020-07-30 11:13:00+00",5.9,7.9,,74.3,-126,-233,-4,1011.88,74.4,0
"2020-07-30 11:18:00+00",5.4,7.4,,74.7,-150,-187,10,1011.8,75,0
"2020-07-30 11:23:00+00",5.9,7.9,,75.1,-150,-208,9,1011.73,75.8,0
"2020-07-30 11:28:00+00",6.6,7.6,,75.5,-186,-220,0,1011.7,76.5,0
"2020-07-30 11:33:00+00",7.2,8.2,,75.6,-161,-279,1,1011.88,77,0
"2020-07-30 11:38:00+00",7.0,8.0,,75.7,-133,-274,13,1011.78,77.3,0
"2020-07-30 11:43:00+00",6.9,8.9,,76,-172,-264,9,1011.8,77.7,0
"2020-07-30 11:48:00+00",7.6,8.6,,76.6,-215,-271,1,1011.8,78.4,0
"2020-07-30 11:53:00+00",8.5,9.5,,77,-229,-296,-11,1011.77,79,0
"2020-07-30 11:58:00+00",7.1,8.1,,77.3,-180,-261,5,1011.82,79.4,0
"2020-07-30 12:03:00+00",7.9,8.9,,77.6,-182,-308,-3,1011.83,79.7,0
"2020-07-30 12:08:00+00",7.4,9.4,,78,-184,-277,7,1011.88,79.9,0
"2020-07-30 12:13:00+00",7.6,8.6,,78.3,-192,-284,11,1011.95,80.3,0
"2020-07-30 12:18:00+00",9.5,10.5,,78.5,-225,-362,-11,1011.93,80.6,0
"2020-07-30 12:23:00+00",7.2,8.2,,78.8,-168,-286,32,1012.03,81,0
"2020-07-30 12:28:00+00",7.7,9.7,,79.1,-137,-317,7,1012.02,81.2,0
"2020-07-30 12:33:00+00",7.8,9.8,,79.2,-146,-312,2,1011.96,81.2,0
"2020-07-30 12:38:00+00",7.7,9.7,,78.8,-203,-295,5,1011.95,81.3,0
"2020-07-30 12:43:00+00",8.3,10.3,,79.3,-208,-325,2,1012.08,81.9,0
"2020-07-30 12:48:00+00",9.1,11.1,,79.6,-121,-376,2,1011.99,82.1,0
"2020-07-30 12:53:00+00",9.0,11.0,,79.7,-161,-372,8,1011.96,82.4,0
"2020-07-30 12:58:00+00",8.4,11.4,,79.7,-123,-341,6,1011.94,82.2,0
"2020-07-30 13:03:00+00",10.7,11.7,,79.7,-177,-429,-4,1011.92,82,0
"2020-07-30 13:08:00+00",9.0,11.0,,79.9,-193,-354,5,1011.84,81.9,0
"2020-07-30 13:13:00+00",8.5,12.5,,80.2,-156,-356,-1,1011.88,82.3,0
"2020-07-30 13:18:00+00",8.7,10.7,,80.3,-122,-360,7,1011.84,82.4,0
"2020-07-30 13:23:00+00",10.1,12.1,,80.3,-143,-432,-9,1011.85,82.3,0
"2020-07-30 13:28:00+00",9.6,12.6,,80.9,-103,-413,-17,1011.83,82.6,0
"2020-07-30 13:33:00+00",8.8,10.8,,81.4,-161,-350,16,1011.84,83.3,0
"2020-07-30 13:38:00+00",10.1,12.1,,81.2,-220,-388,-19,1011.77,83.3,0
"2020-07-30 13:43:00+00",8.7,9.7,,81.3,-197,-341,5,1011.88,83.8,0
"2020-07-30 13:48:00+00",10.4,12.4,,81.5,-281,-389,-8,1011.79,84.4,0
"2020-07-30 13:53:00+00",9.3,11.3,,81.5,-210,-367,-10,1011.76,84.4,0
"2020-07-30 13:58:00+00",9.3,12.3,,81.7,-290,-275,12,1011.73,84.6,0
"2020-07-30 14:03:00+00",10.0,12.0,,81.6,-290,-332,9,1011.76,84.8,0
"2020-07-30 14:08:00+00",9.6,11.6,,81.7,-276,-341,13,1011.71,85,0
"2020-07-30 14:13:00+00",10.0,13.0,,81.8,-308,-324,4,1011.7,85.3,0
"2020-07-30 14:18:00+00",11.0,12.0,,81.8,-321,-352,-4,1011.68,85.5,0
"2020-07-30 14:23:00+00",10.0,12.0,,81.8,-318,-319,20,1011.67,86,0
"2020-07-30 14:28:00+00",10.4,11.4,,82.1,-366,-295,3,1011.61,86.4,0
"2020-07-30 14:33:00+00",8.6,10.6,,82.4,-265,-282,37,1011.65,87.1,0
"2020-07-30 14:38:00+00",12.2,13.2,,82.6,-398,-364,6,1011.77,87.7,0
"2020-07-30 14:43:00+00",11.7,12.7,,83,-319,-423,6,1011.68,87.9,0
"2020-07-30 14:48:00+00",9.8,11.8,,83.4,-210,-391,6,1011.68,88.2,0
"2020-07-30 14:53:00+00",12.2,14.2,,83.8,-316,-467,-13,1011.6,87.7,0
"2020-07-30 14:58:00+00",12.5,13.5,,84.1,-189,-517,-5,1011.57,87.5,0
"2020-07-30 15:03:00+00",11.8,13.8,,84.2,-309,-472,-34,1011.69,87.4,0
"2020-07-30 15:08:00+00",10.4,13.4,,84.8,-164,-440,6,1011.61,87.6,0
"2020-07-30 15:13:00+00",13.1,15.1,,84.9,-208,-525,-9,1011.56,87.5,0
"2020-07-30 15:18:00+00",10.6,12.6,,84.9,-221,-431,22,1011.66,87.7,0
"2020-07-30 15:23:00+00",7.4,11.4,,85.3,-68,-327,19,1011.55,87.8,0
"2020-07-30 15:28:00+00",10.2,12.2,,85.4,-118,-413,10,1011.51,88.1,0
"2020-07-30 15:33:00+00",10.4,12.4,,85.2,-217,-418,1,1011.5,88.1,0
"2020-07-30 15:38:00+00",8.5,11.5,,85.3,-140,-342,21,1011.54,88.1,0
"2020-07-30 15:43:00+00",10.9,13.9,,85.7,-104,-471,-2,1011.45,88.6,0
"2020-07-30 15:48:00+00",13.7,16.7,,85.7,-205,-562,-28,1011.36,88.4,0
"2020-07-30 15:53:00+00",12.1,15.1,,85.7,-170,-508,-15,1011.33,88.6,0
"2020-07-30 15:58:00+00",12.2,16.2,,85.8,-146,-493,-11,1011.29,88.5,0
"2020-07-30 16:03:00+00",12.8,15.8,,86.1,-127,-519,4,1011.23,88.7,0
"2020-07-30 16:08:00+00",13.3,17.3,,86.2,-182,-542,-10,1011.25,88.9,0
"2020-07-30 16:13:00+00",16.7,18.7,,86.3,-292,-676,-24,1011.15,88.7,0
"2020-07-30 16:18:00+00",15.6,18.6,,86,-214,-655,-20,1011.17,88.6,0
"2020-07-30 16:23:00+00",15.4,17.4,,86,-243,-630,-20,1011.06,88.5,0
"2020-07-30 16:28:00+00",11.0,14.0,,86,-115,-483,10,1011.06,88.1,0
"2020-07-30 16:33:00+00",14.4,17.4,,86,-270,-572,10,1011.08,88.1,0
"2020-07-30 16:38:00+00",12.8,18.8,,86.2,-92,-566,-12,1011.09,88.2,0
"2020-07-30 16:43:00+00",16.9,19.9,,86,-319,-702,9,1010.96,88.1,0
"2020-07-30 16:48:00+00",18.2,22.2,,86,-333,-770,11,1010.79,88.3,0
"2020-07-30 16:53:00+00",20.0,25.0,,85.7,-217,-808,-28,1010.78,87.9,0
"2020-07-30 16:58:00+00",17.0,21.0,,85.6,-155,-713,-24,1010.82,87.7,0
"2020-07-30 17:03:00+00",18.5,21.5,,85.2,-257,-775,-16,1010.8,87.5,0
"2020-07-30 17:08:00+00",19.1,24.1,,85.2,-175,-807,-13,1010.7,87.3,0
"2020-07-30 17:13:00+00",11.9,16.9,,85.5,-100,-515,-6,1010.63,87.6,0
"2020-07-30 17:18:00+00",13.6,16.6,,85.8,-106,-570,5,1010.66,87.7,0
"2020-07-30 17:23:00+00",18.4,22.4,,85.7,-186,-740,-26,1010.51,87.5,0
"2020-07-30 17:28:00+00",16.1,21.1,,85.6,-219,-684,-4,1010.52,87.1,0
"2020-07-30 17:33:00+00",18.3,24.3,,85.4,-277,-744,2,1010.54,86.9,0
"2020-07-30 17:38:00+00",17.1,21.1,,85,-189,-725,-24,1010.64,86.7,0
"2020-07-30 17:43:00+00",11.6,15.6,,84.5,-113,-478,26,1010.82,86.1,0
"2020-07-30 17:48:00+00",12.2,14.2,,84.3,-170,-501,-7,1010.76,85.9,0
"2020-07-30 17:53:00+00",14.6,17.6,,84.2,-215,-610,-2,1010.73,85.5,0
"2020-07-30 17:58:00+00",15.5,20.5,,84.3,-153,-671,-6,1010.69,85.3,0
"2020-07-30 18:03:00+00",13.3,17.3,,83.7,-82,-563,-28,1010.66,84.8,0
"2020-07-30 18:08:00+00",19.3,22.3,,83.5,-257,-804,-20,1010.54,84.5,0
"2020-07-30 18:13:00+00",18.4,20.4,,83.3,-308,-741,-15,1010.47,84.1,0
"2020-07-30 18:18:00+00",15.7,17.7,,83.6,-236,-673,4,1010.5,84.6,0
"2020-07-30 18:23:00+00",19.0,21.0,,83.5,-289,-779,-14,1010.44,84.8,0
"2020-07-30 18:28:00+00",14.3,18.3,,84.1,-206,-600,10,1010.52,85.3,0
"2020-07-30 18:33:00+00",15.5,20.5,,84.5,-213,-656,1,1010.42,86,0
"2020-07-30 18:38:00+00",18.3,21.3,,83.9,-281,-742,-17,1010.43,85.7,0
"2020-07-30 18:43:00+00",19.7,22.7,,83.8,-303,-838,-10,1010.37,85.8,0
"2020-07-30 18:48:00+00",18.1,22.1,,83.9,-305,-732,-6,1010.33,86,0
"2020-07-30 18:53:00+00",16.6,22.6,,84.4,-364,-695,16,1010.26,86.4,0
"2020-07-30 18:58:00+00",16.8,19.8,,84.5,-264,-692,3,1010.28,86.3,0
"2020-07-30 19:03:00+00",19.6,21.6,,83.9,-371,-781,-19,1010.12,85.8,0
"2020-07-30 19:08:00+00",21.4,24.4,,83.9,-397,-871,6,1010.22,85.6,0
"2020-07-30 19:13:00+00",19.1,24.1,,84.4,-353,-768,27,1010.03,86.1,0
"2020-07-30 19:18:00+00",20.9,24.9,,83.9,-328,-849,-12,1009.94,86,0
"2020-07-30 19:23:00+00",17.7,21.7,,84.3,-301,-733,11,1009.89,86,0
"2020-07-30 19:28:00+00",22.0,25.0,,83.6,-397,-906,-17,1009.88,85.5,0
"2020-07-30 19:33:00+00",20.9,23.9,,83.4,-373,-836,-27,1009.77,85.3,0
"2020-07-30 19:38:00+00",17.3,20.3,,83.3,-333,-703,9,1009.78,85.4,0
"2020-07-30 19:43:00+00",17.8,21.8,,83.3,-375,-725,0,1009.76,85.3,0
"2020-07-30 19:48:00+00",14.6,17.6,,83.3,-356,-577,-5,1009.8,85.4,0
"2020-07-30 19:53:00+00",15.1,18.1,,82.9,-273,-615,2,1009.78,84.8,0
"2020-07-30 19:58:00+00",17.3,19.3,,82.8,-255,-710,-10,1009.7,84.5,0
"2020-07-30 20:03:00+00",17.3,22.3,,82.9,-297,-709,4,1009.66,84.7,0
"2020-07-30 20:08:00+00",15.1,18.1,,82.5,-344,-599,36,1009.75,84.5,0
"2020-07-30 20:13:00+00",16.5,19.5,,81.8,-304,-663,5,1009.79,83.7,0
"2020-07-30 20:18:00+00",17.5,19.5,,81.7,-271,-721,-13,1009.58,83.1,0
"2020-07-30 20:23:00+00",14.9,17.9,,81.4,-232,-619,1,1009.49,82.6,0
"2020-07-30 20:28:00+00",15.6,20.6,,81.2,-273,-643,12,1009.55,82.4,0
"2020-07-30 20:33:00+00",16.0,20.0,,81.3,-291,-659,9,1009.44,82.4,0
"2020-07-30 20:38:00+00",15.3,18.3,,81.3,-258,-628,-4,1009.46,82.8,0
"2020-07-30 20:43:00+00",16.0,19.0,,81,-329,-638,-23,1009.55,82.3,0
"2020-07-30 20:48:00+00",16.4,20.4,,81,-223,-682,-5,1009.4,82.1,0
"2020-07-30 20:53:00+00",16.4,21.4,,80.9,-296,-678,-1,1009.42,82,0
"2020-07-30 20:58:00+00",16.0,19.0,,80.7,-329,-648,-1,1009.54,81.7,0
"2020-07-30 21:03:00+00",17.4,19.4,,80.5,-292,-717,-13,1009.38,81.4,0
"2020-07-30 21:08:00+00",16.5,19.5,,80.2,-307,-672,3,1009.52,81.1,0
"2020-07-30 21:13:00+00",14.4,20.4,,80.1,-259,-578,12,1009.4,81,0
"2020-07-30 21:18:00+00",16.6,18.6,,79.8,-328,-663,3,1009.52,80.7,0
"2020-07-30 21:23:00+00",13.4,15.4,,79.7,-255,-541,7,1009.49,80.6,0
"2020-07-30 21:28:00+00",13.6,15.6,,79.8,-242,-547,2,1009.34,80.6,0
"2020-07-30 21:33:00+00",14.2,15.2,,80.1,-306,-560,-2,1009.31,80.6,0
"2020-07-30 21:38:00+00",12.6,15.6,,80,-264,-495,15,1009.36,80.7,0
"2020-07-30 21:43:00+00",12.5,14.5,,79.9,-278,-508,5,1009.42,80.7,0
"2020-07-30 21:48:00+00",12.2,15.2,,80,-252,-493,10,1009.43,80.6,0
"2020-07-30 21:53:00+00",14.0,16.0,,80.2,-356,-531,4,1009.53,80.6,0
"2020-07-30 21:58:00+00",12.8,14.8,,80.1,-332,-484,0,1009.57,80.7,0
"2020-07-30 22:03:00+00",13.1,15.1,,80,-373,-470,2,1009.51,80.6,0
"2020-07-30 22:08:00+00",11.4,13.4,,79.8,-330,-411,11,1009.66,80.5,0
"2020-07-30 22:13:00+00",12.2,14.2,,79.6,-311,-463,0,1009.56,80.3,0
"2020-07-30 22:18:00+00",10.2,12.2,,79.3,-257,-389,-9,1009.47,80,0
"2020-07-30 22:23:00+00",10.6,12.6,,78.9,-265,-394,-3,1009.39,79.8,0
"2020-07-30 22:28:00+00",10.6,12.6,,78.6,-214,-422,-2,1009.32,79.2,0
"2020-07-30 22:33:00+00",10.4,12.4,,78.4,-188,-420,-3,1009.39,78.9,0
"2020-07-30 22:38:00+00",11.9,12.9,,78.4,-178,-488,-4,1009.24,78.6,0
"2020-07-30 22:43:00+00",12.9,14.9,,78.7,-228,-522,-10,1009.1,78.7,0
"2020-07-30 22:48:00+00",12.2,14.2,,78.8,-194,-497,1,1009.07,78.8,0
"2020-07-30 22:53:00+00",10.7,13.7,,78.8,-133,-462,-7,1008.99,78.8,0
"2020-07-30 22:58:00+00",8.9,11.9,,79.1,-69,-369,-1,1009.03,79,0
"2020-07-30 23:03:00+00",6.6,9.6,,78.9,-47,-266,12,1009.09,78.9,0
"2020-07-30 23:08:00+00",7.0,9.0,,77.5,-34,-283,-19,1009.13,77.8,0
"2020-07-30 23:13:00+00",6.1,8.1,,77.7,-48,-260,-2,1009.2,77.7,0
"2020-07-30 23:18:00+00",9.5,11.5,,78.4,-184,-384,1,1009.11,78.1,0
"2020-07-30 23:23:00+00",8.2,10.2,,78.4,-197,-321,14,1009.23,78.3,0
"2020-07-30 23:28:00+00",8.8,10.8,,78.4,-211,-340,8,1009.21,78.4,0
"2020-07-30 23:33:00+00",9.4,10.4,,78.5,-200,-373,2,1009.13,78.4,0
"2020-07-30 23:38:00+00",10.3,13.3,,78.3,-147,-434,-5,1009.04,78.2,0
"2020-07-30 23:43:00+00",10.7,14.7,,78.3,-135,-449,-8,1009.08,78.1,0
"2020-07-30 23:48:00+00",10.0,13.0,,78.2,-104,-421,-12,1009.08,78,0
"2020-07-30 23:53:00+00",6.9,8.9,,78.1,-41,-272,-18,1009.07,78,0
"2020-07-30 23:58:00+00",7.8,11.8,,78.1,-31,-301,14,1009.15,78,0
